VE6CPK-13 Weather Reports


Display with metric or nautical units.
time (UTC)temp
F
wind
direction
speed
MPH
gust
MPH
rain 1hr
in
rain 24hr
in
rain mn
in
humidity
%
barometer
mb
20260505072833 41 341 0.0 4.0 0.00 0.00 0.00 52 1015.4
20260505072333 41 341 0.0 4.0 0.00 0.00 0.00 52 1015.4
20260505071832 42 341 0.0 4.0 0.00 0.00 0.00 51 1015.5
20260505071331 42 334 1.0 4.0 0.00 0.00 0.00 50 1015.4
20260505070832 42 45 1.0 4.0 0.00 0.01 0.00 49 1015.5
20260505070331 42 25 0.0 4.0 0.00 0.01 0.00 47 1015.5
20260505065832 43 103 0.0 4.0 0.00 0.01 0.00 46 1015.4
20260505065331 43 106 0.0 4.0 0.00 0.01 0.00 45 1015.4
20260505064832 43 103 0.0 4.0 0.00 0.01 0.00 44 1015.4
20260505064333 43 342 0.0 4.0 0.00 0.01 0.00 44 1015.3
20260505063831 43 329 0.0 4.0 0.00 0.01 0.00 43 1015.3
20260505063332 43 329 1.0 4.0 0.00 0.01 0.00 42 1015.3
20260505062831 44 341 1.0 4.0 0.00 0.01 0.00 41 1015.4
20260505062332 44 6 0.0 4.0 0.00 0.01 0.00 40 1015.3
20260505061833 44 349 1.0 4.0 0.00 0.01 0.00 40 1015.3
20260505061331 44 15 1.0 4.0 0.00 0.01 0.00 39 1015.2
20260505060831 44 13 1.0 4.0 0.00 0.01 0.00 37 1015.2
20260505060332 44 17 0.0 3.0 0.00 0.01 0.00 37 1015.2
20260505055832 44 0 1.0 15.0 0.00 0.01 0.01 36 1015.2
20260505055331 45 19 2.0 15.0 0.00 0.01 0.01 36 1015.1
20260505054831 45 10 3.0 15.0 0.00 0.01 0.01 36 1015.2
20260505054332 45 4 2.0 15.0 0.00 0.01 0.01 37 1015.1
20260505053831 45 14 2.0 15.0 0.00 0.01 0.01 36 1015.0
20260505053331 45 24 1.0 15.0 0.00 0.01 0.01 36 1015.0
20260505052832 45 20 0.0 15.0 0.00 0.01 0.01 35 1015.0
20260505052332 46 14 1.0 15.0 0.00 0.01 0.01 35 1014.9
20260505051832 46 11 1.0 15.0 0.00 0.01 0.01 35 1014.8
20260505051332 46 9 1.0 15.0 0.00 0.01 0.01 35 1014.7
20260505050831 46 12 0.0 15.0 0.00 0.01 0.01 35 1014.7
20260505050332 46 357 2.0 15.0 0.00 0.01 0.01 35 1014.6
20260505041332 47 44 0.0 15.0 0.00 0.01 0.01 35 1014.0
20260505040832 47 30 0.0 15.0 0.00 0.01 0.01 35 1014.0
20260505040331 47 8 3.0 15.0 0.00 0.01 0.01 34 1013.9
20260505035831 47 351 0.0 15.0 0.00 0.01 0.01 35 1013.9
20260505035331 48 19 2.0 15.0 0.00 0.01 0.01 35 1013.8
20260505034831 48 34 0.0 15.0 0.00 0.01 0.01 35 1013.7
20260505034331 48 22 0.0 15.0 0.00 0.01 0.01 35 1013.7
20260505033831 48 35 1.0 15.0 0.00 0.01 0.01 34 1013.6
20260505033331 48 10 1.0 15.0 0.00 0.01 0.01 34 1013.5
20260505032831 48 11 1.0 15.0 0.00 0.01 0.01 34 1013.5
20260505032331 48 13 2.0 15.0 0.00 0.01 0.01 34 1013.4
20260505031831 48 356 2.0 15.0 0.00 0.01 0.01 33 1013.4
20260505031331 48 26 2.0 15.0 0.00 0.01 0.01 34 1013.2
20260505030831 48 28 1.0 15.0 0.00 0.01 0.01 34 1013.2
20260505030332 49 26 3.0 15.0 0.00 0.01 0.01 33 1013.2
20260505025832 49 13 2.0 15.0 0.00 0.01 0.01 33 1013.1
20260505025331 49 30 2.0 15.0 0.00 0.01 0.01 33 1013.0
20260505024832 49 3 2.0 15.0 0.00 0.01 0.01 33 1013.0
20260505024331 49 4 2.0 15.0 0.00 0.01 0.01 33 1012.9
20260505023831 49 18 2.0 15.0 0.00 0.01 0.01 32 1012.8
20260505023331 49 0 2.0 15.0 0.00 0.01 0.01 32 1012.8
20260505022831 50 21 2.0 15.0 0.00 0.01 0.01 31 1012.7
20260505022332 50 30 1.0 15.0 0.00 0.01 0.01 31 1012.6
20260505021832 50 20 1.0 15.0 0.00 0.01 0.01 31 1012.6
20260505021330 50 24 3.0 15.0 0.00 0.01 0.01 31 1012.6
20260505020832 50 14 2.0 15.0 0.00 0.01 0.01 30 1012.6
20260505020330 50 1 2.0 15.0 0.00 0.01 0.01 31 1012.5
20260505015831 50 10 2.0 15.0 0.00 0.01 0.01 30 1012.4
20260505015331 51 350 3.0 15.0 0.00 0.01 0.01 29 1012.4
20260505014832 51 15 5.0 15.0 0.00 0.01 0.01 29 1012.2
20260505014331 51 1 3.0 15.0 0.00 0.01 0.01 29 1012.2
20260505013832 51 22 2.0 15.0 0.00 0.01 0.01 28 1012.1
20260505013331 51 13 3.0 15.0 0.00 0.01 0.01 28 1012.1
20260505012832 52 9 1.0 15.0 0.00 0.01 0.01 28 1012.1
20260505012332 52 4 3.0 15.0 0.00 0.01 0.01 27 1012.0
20260505011831 52 11 3.0 15.0 0.00 0.01 0.01 28 1011.9
20260505011331 52 1 2.0 15.0 0.00 0.01 0.01 27 1011.8
20260505010830 52 354 2.0 15.0 0.00 0.01 0.01 27 1011.9
20260505010331 53 19 3.0 15.0 0.00 0.01 0.01 27 1011.9
20260505005831 53 4 5.0 15.0 0.00 0.01 0.01 27 1011.9
20260505005331 53 358 2.0 15.0 0.00 0.01 0.01 26 1011.9
20260505004832 53 13 2.0 15.0 0.00 0.01 0.01 26 1012.0
20260505004332 53 359 2.0 15.0 0.00 0.01 0.01 26 1011.9
20260505003832 53 18 1.0 15.0 0.00 0.01 0.01 26 1012.0
20260505003332 53 17 5.0 15.0 0.00 0.01 0.01 26 1012.0
20260505002832 53 2 6.0 15.0 0.00 0.01 0.01 26 1012.0
20260505002332 54 15 2.0 15.0 0.00 0.01 0.01 26 1012.0
20260505001831 54 9 5.0 15.0 0.00 0.01 0.01 26 1011.9
20260505001331 54 5 3.0 15.0 0.00 0.01 0.01 26 1011.9
20260505000831 54 16 3.0 15.0 0.00 0.01 0.01 26 1011.8
20260505000331 54 13 1.0 15.0 0.00 0.01 0.01 27 1011.8
20260504235831 54 12 1.0 15.0 0.00 0.01 0.01 26 1011.8
20260504235331 54 29 2.0 15.0 0.00 0.01 0.01 26 1011.7
20260504234831 54 1 2.0 15.0 0.00 0.01 0.01 27 1011.7
20260504234331 54 343 3.0 15.0 0.00 0.01 0.01 26 1011.7
20260504233831 54 15 2.0 15.0 0.00 0.01 0.01 26 1011.7
20260504233331 54 13 2.0 15.0 0.00 0.01 0.01 26 1011.7
20260504232831 54 51 0.0 15.0 0.00 0.01 0.01 27 1011.6
20260504232331 54 358 1.0 15.0 0.00 0.01 0.01 27 1011.7
20260504231830 54 9 3.0 15.0 0.00 0.01 0.01 25 1011.5
20260504231330 54 11 6.0 15.0 0.00 0.01 0.01 25 1011.6
20260504230831 54 24 3.0 15.0 0.00 0.01 0.01 25 1011.5
20260504230331 54 6 2.0 15.0 0.00 0.01 0.01 26 1011.5
20260504225831 54 357 3.0 15.0 0.00 0.01 0.01 25 1011.6
20260504225331 55 7 5.0 15.0 0.00 0.01 0.01 25 1011.5
20260504224831 55 18 0.0 15.0 0.00 0.01 0.01 26 1011.4
20260504224331 55 21 1.0 15.0 0.00 0.01 0.01 26 1011.3
20260504223831 55 350 0.0 15.0 0.00 0.01 0.01 26 1011.3
20260504223331 55 34 2.0 15.0 0.00 0.01 0.01 26 1011.2
20260504222831 55 0 1.0 15.0 0.00 0.01 0.01 25 1011.4
20260504222330 55 0 3.0 15.0 0.00 0.01 0.01 25 1011.5
20260504221831 55 5 2.0 15.0 0.00 0.01 0.01 25 1011.4
20260504221330 55 19 0.0 15.0 0.00 0.01 0.01 26 1011.4
20260504220830 55 17 1.0 15.0 0.00 0.01 0.01 25 1011.5
20260504220331 55 11 0.0 15.0 0.00 0.01 0.01 25 1011.7
20260504215830 55 17 1.0 15.0 0.00 0.01 0.01 25 1011.7
20260504215330 55 0 1.0 15.0 0.00 0.01 0.01 25 1011.6
20260504214830 54 18 2.0 15.0 0.00 0.01 0.01 26 1011.7
20260504214330 54 14 1.0 15.0 0.00 0.01 0.01 26 1011.7
20260504213831 54 358 3.0 15.0 0.00 0.01 0.01 25 1011.7
20260504213331 55 11 6.0 15.0 0.00 0.01 0.01 24 1011.8
20260504212831 55 358 2.0 15.0 0.00 0.01 0.01 25 1011.7
20260504212331 54 54 2.0 15.0 0.00 0.01 0.01 25 1011.8
20260504211831 54 351 2.0 15.0 0.00 0.01 0.01 25 1011.8
20260504211331 54 349 5.0 15.0 0.00 0.01 0.01 24 1011.9
20260504210831 55 23 1.0 15.0 0.00 0.01 0.01 25 1011.8
20260504210331 55 343 2.0 15.0 0.00 0.01 0.01 25 1011.7
20260504205831 55 28 0.0 15.0 0.00 0.01 0.01 26 1011.8
20260504205330 55 3 1.0 15.0 0.00 0.01 0.01 26 1011.8
20260504204830 56 358 2.0 15.0 0.00 0.01 0.01 25 1011.7
20260504204330 56 355 1.0 15.0 0.00 0.01 0.01 25 1011.7
20260504203831 56 20 2.0 15.0 0.00 0.01 0.01 25 1011.8
20260504203330 56 342 1.0 15.0 0.00 0.01 0.01 26 1011.8
20260504202831 56 333 5.0 15.0 0.00 0.01 0.01 25 1011.8
20260504202330 56 82 1.0 15.0 0.00 0.01 0.01 26 1011.8
20260504201830 56 0 2.0 15.0 0.00 0.01 0.01 25 1011.8
20260504201331 55 338 3.0 15.0 0.00 0.01 0.01 26 1011.7
20260504200830 55 9 1.0 15.0 0.00 0.01 0.01 26 1011.7
20260504200329 54 345 2.0 15.0 0.00 0.01 0.01 26 1011.8
20260504195831 54 358 5.0 13.0 0.00 0.01 0.01 26 1011.8
20260504195331 54 5 2.0 12.0 0.00 0.01 0.01 28 1011.9
20260504194830 54 54 2.0 12.0 0.00 0.01 0.01 27 1011.7
20260504194330 54 6 3.0 12.0 0.00 0.01 0.01 27 1011.7
20260504193831 54 25 2.0 12.0 0.00 0.01 0.01 28 1011.7
20260504193330 54 4 2.0 12.0 0.00 0.01 0.01 29 1011.7
20260504192831 55 8 3.0 12.0 0.00 0.01 0.01 29 1011.6
20260504192330 55 344 2.0 12.0 0.00 0.01 0.01 29 1011.7
20260504191830 54 31 3.0 12.0 0.00 0.01 0.01 28 1011.7
20260504191329 55 354 3.0 12.0 0.00 0.01 0.01 29 1011.6
20260504190831 55 12 2.0 12.0 0.00 0.01 0.01 30 1011.7
20260504190329 55 36 0.0 12.0 0.00 0.01 0.01 31 1011.6
20260504185831 54 325 2.0 12.0 0.00 0.01 0.01 30 1011.7
20260504185331 54 29 1.0 12.0 0.00 0.01 0.01 29 1011.7
20260504184830 54 349 2.0 12.0 0.00 0.01 0.01 29 1011.7
20260504184330 54 25 5.0 12.0 0.00 0.01 0.01 28 1011.8
20260504183830 55 12 3.0 12.0 0.00 0.01 0.01 28 1011.9
20260504183330 55 32 5.0 12.0 0.00 0.01 0.01 27 1011.8
20260504182829 54 335 2.0 12.0 0.00 0.01 0.01 31 1011.8
20260504182329 54 334 1.0 12.0 0.00 0.01 0.01 30 1011.8
20260504181830 53 15 5.0 12.0 0.00 0.01 0.01 30 1011.7
20260504181329 53 11 2.0 12.0 0.00 0.01 0.01 32 1011.8
20260504180830 53 24 5.0 12.0 0.00 0.01 0.01 31 1011.9
20260504180330 53 19 3.0 12.0 0.00 0.01 0.01 32 1011.8
20260504175830 52 358 5.0 12.0 0.00 0.01 0.01 33 1011.8
20260504175329 52 8 2.0 12.0 0.00 0.01 0.01 35 1011.8
20260504174830 51 44 1.0 12.0 0.00 0.01 0.01 35 1011.8
20260504174330 51 346 3.0 12.0 0.00 0.01 0.01 38 1011.8
20260504173833 51 350 3.0 12.0 0.00 0.01 0.01 37 1011.8
20260504173333 51 333 3.0 12.0 0.00 0.01 0.01 38 1011.9
20260504172835 51 18 1.0 12.0 0.00 0.01 0.01 41 1011.8
20260504172334 50 32 2.0 12.0 0.00 0.01 0.01 41 1011.8
20260504171835 51 28 3.0 12.0 0.00 0.01 0.01 40 1011.8
20260504171335 50 15 1.0 12.0 0.00 0.01 0.01 40 1011.8
20260504170834 51 2 2.0 12.0 0.00 0.01 0.01 40 1011.8
20260504170333 51 1 3.0 12.0 0.00 0.01 0.01 40 1011.8
20260504160335 45 11 5.0 12.0 0.00 0.01 0.01 51 1011.9
20260504150834 43 9 0.0 12.0 0.00 0.01 0.01 56 1011.7
20260504150335 43 9 0.0 12.0 0.00 0.01 0.01 56 1011.7
20260504141334 42 9 1.0 12.0 0.00 0.01 0.01 53 1011.4
20260504140832 42 9 0.0 12.0 0.00 0.01 0.01 54 1011.3
20260504140333 42 9 0.0 12.0 0.00 0.01 0.01 54 1011.3
20260504130333 40 9 0.0 12.0 0.00 0.01 0.01 59 1010.8
20260504110333 42 9 0.0 12.0 0.00 0.01 0.01 64 1010.5
20260504100333 44 9 0.0 12.0 0.00 0.01 0.01 73 1009.6
20260504081834 46 9 0.0 12.0 0.00 0.01 0.01 70 1009.7
20260504081332 46 9 0.0 12.0 0.00 0.01 0.01 70 1009.7
20260504080831 46 9 0.0 12.0 0.01 0.01 0.01 70 1009.7
20260504080333 46 9 0.0 12.0 0.01 0.01 0.01 70 1009.8